TimeCDT,TemperatureF,Dew PointF,Humidity,Sea Level PressureIn,VisibilityMPH,Wind Direction,Wind SpeedMPH,Gust SpeedMPH,PrecipitationIn,Events,Conditions,WindDirDegrees,DateUTC
12:15 AM,75.2,60.8,61,30.01,10.0,South,4.6,-,N/A,,Clear,180,2012-06-21 05:15:00
12:35 AM,75.2,60.8,61,30.01,10.0,South,3.5,-,N/A,,Clear,190,2012-06-21 05:35:00
12:55 AM,73.4,60.8,65,30.01,10.0,South,3.5,-,N/A,,Clear,180,2012-06-21 05:55:00
1:15 AM,73.4,60.8,65,30.02,10.0,South,3.5,-,N/A,,Clear,190,2012-06-21 06:15:00
1:35 AM,73.4,60.8,65,30.02,10.0,Calm,Calm,-,N/A,,Clear,0,2012-06-21 06:35:00
1:55 AM,73.4,59.0,61,30.02,10.0,South,4.6,-,N/A,,Clear,180,2012-06-21 06:55:00
2:15 AM,71.6,59.0,64,30.01,10.0,SSE,5.8,-,N/A,,Clear,160,2012-06-21 07:15:00
2:35 AM,71.6,57.2,60,30.00,10.0,South,6.9,-,N/A,,Clear,170,2012-06-21 07:35:00
2:55 AM,71.6,57.2,60,30.01,10.0,South,4.6,-,N/A,,Clear,170,2012-06-21 07:55:00
3:15 AM,71.6,57.2,60,30.00,10.0,South,3.5,-,N/A,,Clear,170,2012-06-21 08:15:00
3:35 AM,71.6,57.2,60,30.00,10.0,South,4.6,-,N/A,,Clear,170,2012-06-21 08:35:00
3:55 AM,69.8,57.2,64,30.02,10.0,SSE,4.6,-,N/A,,Clear,160,2012-06-21 08:55:00
4:15 AM,69.8,57.2,64,30.03,10.0,Calm,Calm,-,N/A,,Clear,0,2012-06-21 09:15:00
4:35 AM,69.8,55.4,60,30.03,10.0,SSE,4.6,-,N/A,,Clear,160,2012-06-21 09:35:00
4:55 AM,69.8,55.4,60,30.03,10.0,South,3.5,-,N/A,,Partly Cloudy,190,2012-06-21 09:55:00
5:15 AM,69.8,57.2,64,30.04,10.0,Calm,Calm,-,N/A,,Partly Cloudy,0,2012-06-21 10:15:00
5:35 AM,69.8,57.2,64,30.05,10.0,Calm,Calm,-,N/A,,Clear,0,2012-06-21 10:35:00
5:55 AM,69.8,55.4,60,30.07,10.0,Calm,Calm,-,N/A,,Mostly Cloudy,0,2012-06-21 10:55:00
6:15 AM,69.8,59.0,68,30.07,10.0,SSE,3.5,-,N/A,,Overcast,160,2012-06-21 11:15:00
6:35 AM,69.8,57.2,64,30.09,10.0,Calm,Calm,-,N/A,,Mostly Cloudy,0,2012-06-21 11:35:00
6:55 AM,71.6,57.2,60,30.10,10.0,Calm,Calm,-,N/A,,Overcast,0,2012-06-21 11:55:00
7:15 AM,71.6,57.2,60,30.14,10.0,North,8.1,19.6,N/A,,Mostly Cloudy,350,2012-06-21 12:15:00
7:35 AM,69.8,62.6,78,30.15,5.0,North,12.7,23.0,0.09,Thunderstorm,Overcast,10,2012-06-21 12:35:00
7:55 AM,68.0,62.6,83,30.15,10.0,North,4.6,-,0.11,,Overcast,360,2012-06-21 12:55:00
8:15 AM,68.0,64.4,88,30.13,10.0,Calm,Calm,-,0.02,,Overcast,0,2012-06-21 13:15:00
8:35 AM,68.0,64.4,88,30.13,10.0,East,4.6,-,0.03,,Overcast,80,2012-06-21 13:35:00
8:55 AM,66.2,64.4,94,30.13,10.0,ENE,6.9,-,0.05,,Overcast,70,2012-06-21 13:55:00
9:15 AM,66.2,64.4,94,30.12,8.0,South,5.8,-,0.06,,Overcast,180,2012-06-21 14:15:00
11:55 AM,71.6,66.2,83,30.07,10.0,NW,4.6,-,N/A,,Clear,320,2012-06-21 16:55:00
12:15 PM,73.4,68.0,83,30.07,10.0,WNW,4.6,-,N/A,,Clear,290,2012-06-21 17:15:00
12:35 PM,75.2,66.2,73,30.07,10.0,Calm,Calm,-,N/A,,Clear,0,2012-06-21 17:35:00
12:55 PM,78.8,66.2,65,30.07,10.0,Calm,Calm,-,N/A,,Clear,0,2012-06-21 17:55:00
1:15 PM,78.8,66.2,65,30.07,10.0,Calm,Calm,-,N/A,,Clear,0,2012-06-21 18:15:00
1:35 PM,82.4,66.2,58,30.07,10.0,West,4.6,-,N/A,,Partly Cloudy,270,2012-06-21 18:35:00
1:55 PM,82.4,66.2,58,30.07,10.0,WNW,9.2,18.4,N/A,,Partly Cloudy,290,2012-06-21 18:55:00
2:15 PM,82.4,66.2,58,30.07,10.0,WNW,8.1,17.3,N/A,,Mostly Cloudy,290,2012-06-21 19:15:00
2:35 PM,84.2,66.2,55,30.06,10.0,West,10.4,-,N/A,,Mostly Cloudy,280,2012-06-21 19:35:00
2:55 PM,82.4,66.2,58,30.05,10.0,NW,8.1,-,N/A,,Mostly Cloudy,310,2012-06-21 19:55:00
3:15 PM,82.4,68.0,62,30.04,10.0,WNW,10.4,-,N/A,,Mostly Cloudy,300,2012-06-21 20:15:00
3:35 PM,82.4,68.0,62,30.04,10.0,NNW,6.9,-,N/A,,Overcast,330,2012-06-21 20:35:00
3:55 PM,82.4,69.8,66,30.03,10.0,North,11.5,-,N/A,,Overcast,360,2012-06-21 20:55:00
4:15 PM,80.6,69.8,70,30.03,10.0,North,8.1,-,N/A,,Overcast,350,2012-06-21 21:15:00
4:35 PM,82.4,68.0,62,30.03,10.0,NW,8.1,-,N/A,,Overcast,310,2012-06-21 21:35:00
4:55 PM,82.4,68.0,62,30.03,10.0,NNW,9.2,-,N/A,,Overcast,340,2012-06-21 21:55:00
5:15 PM,80.6,68.0,65,30.02,10.0,NNW,8.1,-,N/A,,Overcast,340,2012-06-21 22:15:00
5:35 PM,80.6,68.0,65,30.02,10.0,NNW,10.4,-,N/A,,Overcast,340,2012-06-21 22:35:00
5:55 PM,80.6,69.8,70,30.02,10.0,NNW,11.5,-,N/A,,Overcast,340,2012-06-21 22:55:00
6:15 PM,78.8,69.8,74,30.02,10.0,North,12.7,-,N/A,,Overcast,10,2012-06-21 23:15:00
6:35 PM,78.8,68.0,69,30.02,10.0,NNE,11.5,-,N/A,,Overcast,20,2012-06-21 23:35:00
6:55 PM,77.0,66.2,69,30.02,10.0,North,9.2,-,N/A,,Overcast,360,2012-06-21 23:55:00
7:15 PM,77.0,66.2,69,30.02,10.0,North,9.2,-,N/A,,Overcast,10,2012-06-22 00:15:00
7:35 PM,77.0,66.2,69,30.02,10.0,North,9.2,-,N/A,,Mostly Cloudy,10,2012-06-22 00:35:00
7:55 PM,75.2,66.2,73,30.02,10.0,NNE,8.1,-,N/A,,Mostly Cloudy,30,2012-06-22 00:55:00
8:15 PM,75.2,66.2,73,30.02,10.0,North,4.6,-,N/A,,Mostly Cloudy,10,2012-06-22 01:15:00
8:35 PM,73.4,66.2,78,30.02,10.0,NE,5.8,-,N/A,,Partly Cloudy,40,2012-06-22 01:35:00
8:55 PM,73.4,66.2,78,30.02,10.0,NNE,5.8,-,N/A,,Clear,20,2012-06-22 01:55:00
9:15 PM,73.4,66.2,78,30.02,10.0,NNE,3.5,-,N/A,,Clear,20,2012-06-22 02:15:00
9:35 PM,73.4,66.2,78,30.02,10.0,NNE,4.6,-,N/A,,Clear,30,2012-06-22 02:35:00
9:55 PM,71.6,66.2,83,30.03,10.0,NNE,3.5,-,N/A,,Clear,30,2012-06-22 02:55:00
10:15 PM,71.6,66.2,83,30.04,10.0,NNE,3.5,-,N/A,,Clear,30,2012-06-22 03:15:00
10:35 PM,71.6,66.2,83,30.04,10.0,NNE,3.5,-,N/A,,Clear,20,2012-06-22 03:35:00
10:55 PM,71.6,66.2,83,30.04,10.0,Calm,Calm,-,N/A,,Clear,0,2012-06-22 03:55:00
11:35 PM,69.8,66.2,88,30.05,10.0,Calm,Calm,-,N/A,,Clear,0,2012-06-22 04:35:00
11:55 PM,71.6,66.2,83,30.05,10.0,NNE,3.5,-,N/A,,Clear,20,2012-06-22 04:55:00